West Palm Beach, FL

11:38 AM EDT on October 19, 2019 (GMT -0400)
Palm Beach International

Weather History for KPBI - May, 2019

Change the Weather History Date:

Monday, May 13, 2019

  Actual Average Record
Temperature  
Mean Temperature 80 °F 78 °F  
Max Temperature 89 °F 85 °F 93 °F (1967)
Min Temperature 71 °F 71 °F 57 °F (1928)
Degree Days  
Heating Degree Days 0 0  
Month to date heating degree days 0 0  
Since 1 July heating degree days 144 233  
Cooling Degree Days 15 13  
Month to date cooling degree days 186 155  
Year to date cooling degree days 1111 850  
Growing Degree Days 30 (Base 50)    
Moisture  
Dew Point 73 °F    
Average Humidity 75    
Maximum Humidity 94    
Minimum Humidity 56    
Precipitation  
Precipitation 1.19 in 0.13 in 5.22 in (1946)
Month to date precipitation 5.26 1.25  
Year to date precipitation 20.98 15.45  
Snow  
Snow 0.00 in - - ()
Month to date snowfall 0.0  
Since 1 July snowfall 0.0  
Snow Depth 0.00 in    
Sea Level Pressure  
Sea Level Pressure 29.92 in    
Wind  
Wind Speed 8 mph (SSW)    
Max Wind Speed 25 mph    
Max Gust Speed 35 mph    
Visibility 8 miles    
Events Rain , Thunderstorm    
T = Trace of Precipitation, MM = Missing Value Source: NWS Daily Summary

Daily Weather History Graph

Daily Weather History Graph

Search for Another Location

Airport or City:

Astronomy

May. 13, 2019 Rise Set
Actual Time 6:34 AM EDT 7:59 PM EDT
Civil Twilight 6:09 AM EDT 8:24 PM EDT
Nautical Twilight 5:39 AM EDT 8:54 PM EDT
Astronomical Twilight 5:08 AM EDT 9:25 PM EDT
Moon 2:50 PM EDT (5/13) 3:07 AM EDT (5/13)
Length of Visible Light 14h 15m
Length of Day
13h 25m
Waxing Gibbous, 68% of the Moon is Illuminated
May 13
Waxing Gibbous
May 18
Full
May 26
Last Quarter
Jun 3
New
Jun 10
First Quarter

Hourly Weather History & Observations

Time (EDT) Temp. Heat Index Dew Point Humidity Pressure Visibility Wind Dir Wind Speed Gust Speed Precip Events Conditions
12:53 AM 73.9 °F - 72.0 °F 93% 29.95 in 10.0 mi SW 3.5 mph - N/A   Partly Cloudy
1:53 AM 75.0 °F - 72.0 °F 90% 29.93 in 10.0 mi South 5.8 mph - N/A   Partly Cloudy
2:53 AM 75.9 °F - 73.0 °F 91% 29.91 in 10.0 mi South 6.9 mph - N/A   Partly Cloudy
3:53 AM 75.9 °F - 73.0 °F 91% 29.88 in 10.0 mi South 6.9 mph - N/A   Partly Cloudy
4:53 AM 75.9 °F - 73.0 °F 91% 29.88 in 10.0 mi SSW 5.8 mph - N/A   Partly Cloudy
5:53 AM 75.0 °F - 73.0 °F 94% 29.91 in 10.0 mi West 3.5 mph - N/A   Partly Cloudy
6:53 AM 73.0 °F - 72.0 °F 96% 29.93 in 7.0 mi West 3.5 mph - N/A   Partly Cloudy
7:53 AM 79.0 °F - 75.0 °F 88% 29.96 in 10.0 mi WSW 4.6 mph - N/A   Partly Cloudy
8:53 AM 77.0 °F - 75.9 °F 96% 29.96 in 10.0 mi SW 11.5 mph - N/A   Partly Cloudy
9:53 AM 82.0 °F 88.6 °F 75.0 °F 79% 29.96 in 10.0 mi SW 13.8 mph - N/A   Partly Cloudy
10:53 AM 86.0 °F 95.1 °F 75.0 °F 70% 29.94 in 10.0 mi SSW 12.7 mph - N/A   Scattered Clouds
11:53 AM 88.0 °F 96.5 °F 73.9 °F 63% 29.93 in 10.0 mi SSW 13.8 mph 18.4 mph N/A   Scattered Clouds
12:53 PM 89.1 °F 96.0 °F 72.0 °F 57% 29.90 in 10.0 mi SW 10.4 mph 18.4 mph N/A   Scattered Clouds
1:15 PM 84.9 °F 90.7 °F 72.0 °F 65% 29.89 in 10.0 mi West 8.1 mph - N/A Thunderstorm Thunderstorm
1:53 PM 82.9 °F 90.2 °F 75.0 °F 77% 29.88 in 7.0 mi SE 8.1 mph - 0.01 in Rain , Thunderstorm Light Thunderstorms and Rain
2:53 PM 80.1 °F 84.5 °F 73.9 °F 81% 29.90 in 9.0 mi South 10.4 mph - 0.00 in Thunderstorm Thunderstorm
3:53 PM 75.9 °F - 71.1 °F 85% 29.88 in 10.0 mi SSE 11.5 mph - 0.01 in Rain , Thunderstorm Light Thunderstorms and Rain
4:53 PM 75.9 °F - 73.0 °F 91% 29.91 in 3.0 mi Variable 5.8 mph - 0.10 in Rain , Thunderstorm Thunderstorms and Rain
5:00 PM 75.9 °F - 73.0 °F 91% 29.91 in 1.5 mi NNE 6.9 mph - 0.02 in Rain , Thunderstorm Heavy Thunderstorms and Rain
5:18 PM 75.0 °F - 73.0 °F 94% 29.90 in 6.0 mi ESE 11.5 mph - 0.15 in Rain , Thunderstorm Light Thunderstorms and Rain
5:26 PM 75.0 °F - 73.0 °F 94% 29.91 in 1.5 mi SE 8.1 mph - 0.17 in Rain , Thunderstorm Heavy Thunderstorms and Rain
5:34 PM 75.0 °F - 73.0 °F 94% 29.91 in 1.0 mi South 19.6 mph 23.0 mph 0.46 in Rain , Thunderstorm Heavy Thunderstorms and Rain
5:45 PM 75.0 °F - 73.0 °F 94% 29.90 in 2.0 mi SW 12.7 mph 34.5 mph 1.03 in Rain , Thunderstorm Thunderstorms and Rain
5:47 PM 75.2 °F - 73.4 °F 94% 29.90 in 5.0 mi West 10.4 mph 34.5 mph 1.04 in Rain , Thunderstorm Light Thunderstorms and Rain
5:53 PM 75.0 °F - 73.0 °F 94% 29.92 in 5.0 mi North 19.6 mph 24.2 mph 1.04 in Rain , Thunderstorm Light Thunderstorms and Rain
6:08 PM 75.0 °F - 73.0 °F 94% 29.93 in 3.0 mi North 19.6 mph 32.2 mph 0.03 in Rain , Thunderstorm Thunderstorms and Rain
6:43 PM 73.0 °F - 71.1 °F 93% 29.93 in 10.0 mi North 12.7 mph - 0.03 in   Mostly Cloudy
6:53 PM 73.9 °F - 72.0 °F 93% 29.94 in 10.0 mi North 10.4 mph - 0.03 in   Mostly Cloudy
7:53 PM 73.9 °F - 72.0 °F 93% 29.94 in 10.0 mi NE 5.8 mph - N/A   Mostly Cloudy
8:53 PM 75.0 °F - 72.0 °F 90% 29.95 in 10.0 mi ESE 8.1 mph - N/A   Mostly Cloudy
9:53 PM 75.0 °F - 72.0 °F 90% 29.94 in 10.0 mi ESE 6.9 mph - N/A   Mostly Cloudy
10:53 PM 75.9 °F - 71.1 °F 85% 29.94 in 10.0 mi SSE 3.5 mph - N/A   Scattered Clouds
11:53 PM 73.9 °F - 72.0 °F 93% 29.94 in 10.0 mi WNW 3.5 mph - N/A   Mostly Cloudy